Date,TemperatureHighF,TemperatureAvgF,TemperatureLowF,DewpointHighF,DewpointAvgF,DewpointLowF,HumidityHigh,HumidityAvg,HumidityLow,PressureMaxIn,PressureMinIn,WindSpeedMaxMPH,WindSpeedAvgMPH,GustSpeedMaxMPH,PrecipitationSumIn
2013-1-1,44.3,40.9,37.4,26.9,24.6,19.8,60,52,46,30.01,29.88,10,3,13,0.00
2013-1-2,38.3,33.0,26.5,25.2,14.6,9.2,59,47,34,30.24,29.97,11,4,18,0.00
2013-1-3,38.5,30.0,23.6,17.7,14.3,10.9,68,53,33,30.25,30.13,10,2,14,0.00
2013-1-4,42.3,35.4,27.8,18.8,17.4,16.2,63,48,36,30.20,30.06,23,6,24,0.00
2013-1-5,43.5,37.2,32.9,26.8,20.4,16.8,67,51,39,30.38,30.11,13,4,17,0.00
2013-1-6,51.1,42.7,31.3,30.8,26.9,22.6,83,56,33,30.19,29.99,10,3,16,0.00
2013-1-7,46.0,40.6,29.1,26.9,23.9,20.5,71,52,41,30.44,30.12,16,3,20,0.00
2013-1-8,53.2,39.3,25.5,33.0,27.3,18.6,78,63,40,30.43,30.36,12,2,15,0.00
2013-1-9,53.3,42.0,28.7,39.1,32.3,23.8,84,69,43,30.40,30.23,10,2,20,0.14
2013-1-10,53.0,46.5,40.0,29.4,25.8,23.4,60,44,33,30.61,30.36,14,3,15,0.00
2013-1-11,44.5,40.7,34.8,41.1,33.6,26.3,90,76,60,30.52,30.10,7,1,9,0.07
2013-1-12,57.2,47.1,42.1,46.4,41.9,39.5,91,83,66,30.18,30.10,8,1,9,0.00
2013-1-13,50.8,45.5,41.4,49.1,43.3,38.1,94,92,86,30.15,29.98,8,2,12,0.00
2013-1-14,57.9,50.9,40.5,55.2,43.8,31.6,94,78,51,30.31,29.95,16,3,19,0.17
2013-1-15,40.6,38.8,35.0,37.4,35.6,32.1,91,88,80,30.34,30.13,8,3,14,0.76
2013-1-16,41.4,37.7,34.4,38.4,34.8,31.8,91,89,87,30.15,29.80,15,2,18,0.59
2013-1-17,43.8,41.7,37.9,39.2,30.7,26.2,89,66,51,30.12,29.94,9,3,14,0.00
2013-1-18,38.1,33.7,28.6,27.9,13.9,3.8,68,45,26,30.50,29.99,17,5,24,0.00
2013-1-19,54.8,42.4,30.7,24.7,21.6,12.5,63,45,28,30.42,29.93,17,7,20,0.00
2013-1-20,57.9,46.6,35.9,27.9,19.8,7.6,54,36,19,30.09,29.78,20,6,27,0.00
2013-1-21,41.6,34.1,29.6,28.6,15.9,7.2,61,47,34,30.11,29.77,17,5,20,0.00
2013-1-22,29.7,20.6,15.7,7.7,-6.4,-12.3,41,30,22,30.30,29.89,24,8,33,0.00
2013-1-23,24.4,19.0,12.3,0.7,-5.1,-8.7,50,34,26,30.36,30.13,15,4,21,0.00
2013-1-24,25.8,20.0,15.0,10.9,3.0,-5.3,75,50,26,30.51,30.08,15,5,23,0.03
2013-1-25,22.8,18.0,12.5,13.4,3.6,-3.1,76,55,33,30.51,30.06,10,2,16,0.05
2013-1-26,32.1,25.1,19.6,15.6,14.4,12.3,76,64,47,30.43,30.06,13,2,19,0.00
2013-1-27,37.5,26.4,16.4,21.1,15.2,10.2,80,64,39,30.61,30.41,8,2,11,0.00
2013-1-28,40.4,34.8,28.2,36.4,29.4,19.6,89,81,63,30.52,30.02,12,3,22,0.12
2013-1-29,65.0,49.4,34.1,49.5,41.8,30.5,92,77,55,30.14,29.96,10,3,14,0.00
2013-1-30,70.7,57.7,46.0,59.6,52.4,42.4,93,83,67,29.98,29.21,23,7,29,0.50
2013-1-31,61.3,43.6,29.2,59.2,23.9,6.3,94,48,26,29.92,29.11,34,11,40,0.44
2013-2-1,31.1,26.3,19.7,23.6,6.4,-2.0,85,44,29,30.38,29.79,27,7,33,0.00
2013-2-2,29.9,23.7,16.7,22.9,7.7,0.0,83,52,30,30.39,30.00,12,4,14,0.01
2013-2-3,34.6,28.6,20.5,25.4,21.9,16.1,87,76,54,30.02,29.81,12,2,26,0.00
2013-2-4,35.7,29.9,23.4,20.9,11.3,5.2,60,46,35,30.11,29.87,15,4,24,0.00
2013-2-5,37.5,33.8,28.8,27.8,24.4,19.8,78,69,55,29.94,29.83,7,2,9,0.00
2013-2-6,43.0,36.5,29.2,28.5,23.6,18.1,82,61,41,30.36,29.91,13,4,23,0.00
2013-2-7,37.9,32.1,24.8,26.8,20.7,17.1,77,63,47,30.47,30.19,11,3,14,0.00
2013-2-8,42.1,37.2,32.9,38.2,31.3,19.5,92,80,53,30.19,29.69,24,6,30,0.20
2013-2-9,39.2,32.5,28.2,19.5,13.6,10.8,57,46,33,30.38,29.86,38,8,38,0.00
2013-2-10,41.9,31.9,18.9,28.7,13.9,7.7,75,50,27,30.50,30.24,13,3,14,0.00
2013-2-11,55.3,45.4,36.5,49.0,41.1,28.7,93,85,60,30.26,29.66,16,5,19,0.40
2013-2-12,55.9,47.4,37.8,36.6,26.1,20.9,64,44,30,29.99,29.77,23,5,24,0.00
2013-2-13,44.0,36.2,30.5,33.7,27.7,23.6,91,72,53,29.96,29.63,7,3,13,0.33
2013-2-14,49.3,36.4,31.9,31.8,28.1,16.6,91,75,28,30.02,29.73,9,3,13,0.04
2013-2-15,57.1,43.6,35.1,35.6,31.8,27.6,87,65,36,30.03,29.89,15,4,20,0.16
2013-2-16,37.8,35.5,32.6,34.7,27.8,13.1,91,74,44,30.02,29.80,11,4,17,0.13
2013-2-17,32.5,28.0,23.9,14.8,8.3,2.5,57,43,31,30.19,29.80,24,9,30,0.00
2013-2-18,40.8,29.8,20.8,23.9,6.7,1.6,65,39,21,30.38,30.17,13,5,26,0.00
2013-2-19,45.3,40.1,33.7,39.5,28.1,16.9,84,64,44,30.17,29.71,18,6,25,0.06
2013-2-20,38.4,31.9,25.0,18.4,10.8,3.7,48,41,34,30.15,29.83,32,8,32,0.00
2013-2-21,37.4,29.7,23.7,13.1,9.8,6.5,51,43,34,30.33,30.11,25,6,25,0.00
2013-2-22,33.2,31.0,29.0,29.1,19.9,12.6,87,64,48,30.40,30.22,10,3,14,0.00
2013-2-23,46.0,39.2,32.1,43.1,36.8,28.8,93,91,87,30.22,29.79,8,3,11,0.34
2013-2-24,49.9,41.9,32.5,40.3,28.5,17.4,90,62,33,30.10,29.78,17,6,28,0.00
2013-2-25,47.2,36.5,28.3,24.0,19.9,16.5,70,52,35,30.22,30.09,12,3,15,0.00
2013-2-26,44.6,36.7,26.8,42.0,30.4,19.9,92,78,62,30.23,29.60,21,5,35,0.52
2013-2-27,54.9,47.3,40.7,42.2,36.6,30.1,93,69,43,29.68,29.49,17,5,21,0.07
2013-2-28,47.1,43.0,40.6,37.0,28.2,19.3,85,57,34,29.72,29.62,17,5,23,0.01
2013-3-1,43.8,41.0,36.0,29.3,25.8,21.1,67,55,44,29.86,29.69,15,6,18,0.00
2013-3-2,37.8,34.1,30.7,22.3,19.3,16.2,65,55,46,29.86,29.79,13,5,19,0.00
2013-3-3,37.9,33.4,29.5,18.3,16.7,15.1,60,50,42,29.89,29.78,18,7,23,0.00
2013-3-4,42.0,33.7,27.6,16.7,13.7,11.4,53,44,32,30.02,29.88,18,6,27,0.00
2013-3-5,46.6,37.2,27.3,27.1,17.7,11.5,63,46,25,30.08,29.83,11,3,16,0.00
2013-3-6,41.0,37.1,33.1,34.3,31.5,24.5,91,81,57,29.97,29.61,27,12,39,0.91
2013-3-7,48.9,41.9,36.0,28.1,23.5,20.1,66,49,34,30.13,29.96,27,8,30,0.00
2013-3-8,47.5,41.7,34.4,25.3,22.7,17.3,62,47,38,30.25,30.10,22,8,39,0.00
2013-3-9,62.6,46.7,35.2,24.1,19.9,17.2,52,37,18,30.33,30.23,9,4,21,0.00
2013-3-10,58.2,45.7,28.7,38.5,21.1,7.2,79,43,13,30.34,30.23,16,5,22,0.00
2013-3-11,56.5,49.1,43.0,46.5,41.8,38.2,86,76,67,30.26,29.94,17,6,25,0.00
2013-3-12,58.2,51.9,42.1,53.8,43.3,28.6,91,74,49,29.96,29.69,18,7,26,0.56
2013-3-13,49.6,41.1,32.2,30.2,23.3,13.2,79,52,25,30.04,29.88,20,5,28,0.01
2013-3-14,43.6,37.0,31.7,16.6,12.5,8.3,51,37,24,30.11,30.00,26,8,36,0.00
2013-3-15,55.9,42.8,30.3,28.1,18.7,12.8,57,39,25,30.09,29.77,17,4,27,0.00
2013-3-16,54.4,44.9,38.0,37.0,31.5,27.5,75,60,47,29.93,29.66,15,4,19,0.00
2013-3-17,39.8,37.6,33.3,30.3,26.5,19.3,82,65,48,30.28,29.92,17,5,19,0.00
2013-3-18,38.6,36.8,35.0,34.7,25.4,15.2,90,65,43,30.34,29.87,13,5,18,0.51
2013-3-19,57.5,45.2,37.4,38.4,28.7,5.6,91,61,16,29.91,29.70,22,5,29,0.02
2013-3-20,51.3,43.3,35.9,19.5,12.3,8.1,44,29,18,30.00,29.77,25,6,28,0.00
2013-3-21,42.8,34.8,29.0,23.9,10.8,1.9,67,38,26,29.90,29.73,23,7,24,0.00
2013-3-22,45.3,35.5,28.0,16.2,12.0,5.2,48,38,27,30.01,29.87,20,7,28,0.00
2013-3-23,50.9,39.4,27.0,20.8,17.9,15.2,63,43,27,30.03,29.91,18,5,22,0.00
2013-3-24,41.7,36.4,28.7,30.3,20.4,16.6,82,54,39,30.01,29.68,11,3,16,0.00
2013-3-25,35.8,33.9,32.0,33.0,30.5,28.2,91,88,77,29.69,29.50,7,2,10,1.58
2013-3-26,50.6,40.8,31.7,32.4,27.6,20.0,90,63,30,29.97,29.69,11,4,16,0.00
2013-3-27,48.7,43.5,38.2,28.8,24.9,20.7,62,48,37,30.11,29.96,22,7,34,0.00
2013-3-28,48.9,42.7,35.6,30.1,25.6,20.8,66,52,33,30.22,30.07,20,6,24,0.00
2013-3-29,54.4,47.3,42.2,27.8,25.0,22.0,55,42,29,30.26,30.13,14,4,27,0.00
2013-3-30,59.7,48.2,35.4,30.4,25.5,17.0,71,44,20,30.24,30.10,11,2,15,0.00
2013-3-31,54.0,47.9,38.4,48.3,38.8,26.0,89,71,49,30.14,29.73,15,4,18,0.01
2013-4-1,65.3,50.9,40.9,44.5,34.5,15.9,90,58,32,29.99,29.70,22,6,29,0.00
2013-4-2,47.2,40.7,32.1,16.5,12.2,8.9,49,32,23,30.18,29.99,20,5,24,0.00
2013-4-3,48.9,40.0,29.9,13.9,10.8,5.1,49,31,19,30.40,30.17,21,6,28,0.00
2013-4-4,47.5,38.1,26.0,32.5,16.0,9.4,77,42,24,30.43,30.10,14,4,16,0.01
2013-4-5,64.3,49.1,37.7,36.7,28.6,17.0,89,54,20,30.11,29.80,14,4,21,0.13
2013-4-6,52.8,45.8,37.8,31.8,17.6,11.1,60,33,21,30.34,30.05,14,5,19,0.00
2013-4-7,64.0,51.7,39.9,42.5,35.4,28.1,75,55,37,30.31,29.98,18,6,25,0.00
2013-4-8,76.3,67.5,57.4,51.7,43.9,38.7,57,43,31,30.08,29.96,15,5,18,0.00
2013-4-9,86.0,73.8,65.7,53.4,50.2,47.7,60,45,28,30.07,29.91,19,5,22,0.00
2013-4-10,90.9,78.3,68.4,55.6,52.0,49.6,54,41,27,29.96,29.77,18,5,20,0.00
2013-4-11,81.1,68.9,53.7,61.9,55.3,49.9,87,64,40,29.91,29.75,19,5,26,0.00
2013-4-12,61.6,54.2,51.1,57.5,51.6,48.8,94,91,85,29.84,29.59,13,5,17,0.87
2013-4-13,68.2,55.5,43.6,49.7,40.6,32.0,91,61,31,29.93,29.75,15,4,21,0.00
2013-4-14,67.0,55.6,41.9,45.1,36.7,29.3,85,53,26,30.13,29.93,14,4,19,0.00
2013-4-15,61.1,56.7,52.9,48.9,45.9,41.2,84,67,54,30.29,30.12,12,4,18,0.02
2013-4-16,71.0,61.4,52.5,55.2,51.0,45.6,82,69,56,30.32,30.10,17,5,20,0.00
2013-4-17,73.8,65.5,59.6,59.3,55.4,51.5,85,71,56,30.23,30.10,12,4,19,0.00
2013-4-18,73.1,63.6,57.7,60.5,55.4,50.1,92,76,56,30.24,30.00,20,7,27,0.12
2013-4-19,76.2,65.7,52.7,62.8,58.9,48.5,89,79,62,30.00,29.58,15,6,25,0.93
2013-4-20,58.9,52.5,46.7,49.3,31.0,21.9,90,47,27,30.32,29.77,19,6,25,0.13
2013-4-21,53.9,46.6,40.1,30.7,21.9,16.9,60,38,26,30.59,30.32,14,4,17,0.00
2013-4-22,54.2,47.1,36.5,35.8,32.4,29.1,77,57,44,30.58,30.41,12,4,23,0.00
2013-4-23,62.0,51.4,46.0,42.7,39.2,35.8,78,64,40,30.41,30.12,10,3,13,0.00
2013-4-24,72.5,58.3,42.4,55.5,48.1,37.0,88,70,48,30.13,29.78,15,4,30,0.00
2013-4-25,66.3,55.0,46.3,52.9,32.8,22.6,67,45,20,30.30,29.94,18,5,30,0.01
2013-4-26,67.0,56.0,43.6,38.7,33.1,27.3,74,45,26,30.44,30.29,12,3,17,0.00
2013-4-27,68.9,56.9,40.3,44.5,34.2,28.3,76,47,22,30.43,30.28,11,2,14,0.00
2013-4-28,67.5,58.1,44.8,45.2,37.0,28.5,75,48,25,30.29,30.15,14,4,23,0.00
2013-4-29,59.0,56.2,53.4,55.4,51.9,38.9,92,86,49,30.16,30.06,12,4,18,0.46
2013-4-30,60.9,57.0,54.5,56.8,52.2,44.5,93,84,66,30.28,30.09,8,3,16,0.26
2013-5-1,69.8,57.5,47.1,46.6,40.8,35.0,82,57,30,30.43,30.28,11,3,17,0.00
2013-5-2,68.2,57.3,45.3,47.2,43.7,39.4,86,62,38,30.44,30.31,12,2,14,0.00
2013-5-3,63.0,54.7,46.2,46.0,41.3,38.4,83,62,42,30.39,30.30,14,4,18,0.00
2013-5-4,67.4,55.8,47.3,44.4,41.5,37.1,84,61,38,30.34,30.18,14,4,18,0.00
2013-5-5,61.1,52.6,45.1,45.2,39.9,36.4,77,63,47,30.25,30.15,13,4,17,0.00
2013-5-6,62.7,55.1,48.5,55.6,49.7,41.8,91,82,74,30.19,30.07,11,3,17,0.00
2013-5-7,63.6,59.6,56.8,60.2,57.0,54.5,93,91,87,30.08,29.94,13,4,18,1.01
2013-5-8,69.3,61.4,57.4,56.6,55.0,51.4,90,80,59,30.00,29.92,10,2,13,0.05
2013-5-9,75.0,63.6,52.3,58.4,54.2,49.9,93,73,48,29.98,29.91,12,2,17,0.00
2013-5-10,81.8,70.4,55.2,61.3,55.9,50.4,87,63,41,30.01,29.86,12,3,18,0.25
2013-5-11,78.0,67.7,63.2,63.2,59.9,56.9,88,77,50,29.93,29.70,10,3,29,0.88
2013-5-12,64.7,59.8,50.3,58.5,38.1,25.6,83,48,27,30.02,29.72,14,5,24,0.02
2013-5-13,58.9,51.3,40.5,34.3,26.9,20.3,74,42,23,30.15,30.01,17,4,28,0.00
2013-5-14,62.7,51.6,36.1,43.6,30.2,23.5,77,47,26,30.20,30.05,13,2,23,0.00
2013-5-15,80.1,66.9,56.7,61.6,51.8,43.6,78,59,48,30.06,29.67,13,4,15,0.00
2013-5-16,82.3,77.1,71.3,60.7,57.0,53.9,58,50,41,29.90,29.72,19,4,24,13.79
2013-5-17,81.3,72.3,59.4,56.8,48.3,37.7,79,46,25,30.15,29.90,10,3,13,0.00
2013-5-18,67.4,63.6,60.0,55.4,52.0,44.3,83,67,45,30.25,30.15,12,4,15,0.01
2013-5-19,73.0,66.0,60.2,62.9,59.7,55.4,87,80,70,59.94,30.10,7,2,10,0.02
2013-5-20,83.4,71.9,65.6,69.2,63.8,60.8,87,76,55,30.11,29.98,9,3,14,0.00
2013-5-21,85.7,74.6,67.8,68.3,65.7,63.4,88,75,53,59.71,29.87,11,3,13,0.00
2013-5-22,86.5,77.2,70.3,71.0,67.5,61.4,85,73,56,59.61,29.83,13,4,17,0.18
2013-5-23,80.5,72.9,65.4,67.5,64.5,59.4,86,75,58,29.90,29.76,13,4,17,0.72
2013-5-24,66.4,58.1,50.3,62.5,47.9,31.3,88,70,48,59.51,29.72,20,5,25,0.06
2013-5-25,65.7,55.2,44.3,35.1,32.8,30.3,63,44,27,30.14,30.05,16,6,25,0.00
2013-5-26,72.1,60.2,49.5,42.6,34.9,31.6,57,40,25,59.85,30.11,18,4,19,0.00
2013-5-27,72.9,63.0,46.5,50.5,40.8,34.0,73,47,27,59.94,30.17,8,2,11,0.00
2013-5-28,79.6,68.2,59.9,65.4,58.6,49.8,88,72,60,59.93,30.06,8,2,12,0.12
2013-5-29,89.1,77.9,68.1,68.8,64.7,60.0,86,66,41,59.81,30.06,10,3,14,0.00
2013-5-30,90.7,81.4,72.7,70.0,64.6,60.2,70,57,37,30.17,30.10,11,3,18,0.00
2013-5-31,91.4,81.8,69.2,66.7,62.9,59.6,80,55,36,30.15,30.02,11,3,18,0.00
2013-6-1,93.2,81.2,70.9,67.6,63.9,60.8,71,57,40,30.04,29.92,12,3,18,0.00
2013-6-2,86.0,77.8,69.0,66.7,63.6,60.5,80,63,49,29.92,29.83,13,5,19,0.46
2013-6-3,83.6,72.6,68.1,65.8,63.5,57.3,82,74,55,29.92,29.82,11,2,28,0.77
2013-6-4,77.3,67.9,59.3,57.3,46.5,39.4,71,48,30,30.11,29.92,12,3,17,0.00
2013-6-5,77.9,68.3,55.3,55.1,50.6,44.0,81,55,31,30.17,30.06,11,2,14,0.00
2013-6-6,73.3,68.1,61.3,62.3,56.5,50.6,84,67,56,59.82,29.87,14,3,17,0.14
2013-6-7,73.9,69.4,65.9,67.2,64.5,61.0,88,85,77,29.87,29.56,9,3,17,2.66
2013-6-8,82.1,71.6,65.0,65.3,60.2,57.2,85,69,43,30.08,29.66,9,2,13,0.00
2013-6-9,80.6,73.6,66.8,66.0,61.7,55.8,81,67,53,59.81,30.08,10,2,13,0.00
2013-6-10,77.1,73.5,69.4,70.9,67.7,63.1,87,82,71,30.10,29.79,12,3,18,1.97
2013-6-11,83.3,74.7,67.9,65.2,62.2,59.8,86,67,49,59.54,29.75,16,4,24,0.00
2013-6-12,89.6,78.1,70.5,67.3,62.6,58.6,69,60,44,29.84,29.79,15,2,17,20.90
2013-6-13,86.7,75.5,69.7,70.4,64.2,53.3,83,69,47,29.78,29.45,18,5,32,0.44
2013-6-14,79.1,69.0,59.7,55.6,51.7,46.1,82,56,34,29.96,29.56,15,5,26,0.06
2013-6-15,82.3,72.9,60.2,57.8,53.2,48.4,80,52,32,30.06,29.95,11,2,16,0.00
2013-6-16,85.3,75.0,64.8,64.0,59.4,54.1,73,59,45,59.85,29.87,11,3,16,0.00
2013-6-17,89.1,79.5,70.7,66.8,62.9,57.9,71,57,42,29.95,29.87,10,2,13,0.00
2013-6-18,81.3,73.0,65.9,66.8,62.5,56.4,80,70,58,59.74,29.79,8,2,11,0.62
2013-6-19,79.1,70.7,64.5,61.8,56.5,50.7,85,63,40,30.15,29.87,9,2,12,0.00
2013-6-20,79.0,74.3,64.3,58.0,52.9,48.8,77,48,36,59.99,30.16,13,4,17,0.00
2013-6-21,80.0,71.8,58.9,61.2,52.6,41.5,75,53,27,60.13,30.23,12,2,13,0.00
2013-6-22,84.9,75.1,65.3,63.2,60.4,57.0,81,62,42,30.26,30.14,11,3,13,0.00
2013-6-23,87.0,76.7,68.6,68.8,64.0,58.9,75,65,52,60.01,30.07,8,2,11,0.13
2013-6-24,93.1,81.1,73.3,70.1,66.0,63.7,75,61,40,30.12,30.00,18,2,22,0.03
2013-6-25,94.6,82.8,69.9,68.7,66.1,59.3,80,59,39,59.87,29.88,16,3,27,0.17
2013-6-26,93.3,79.0,68.7,74.4,66.2,62.0,83,66,44,59.77,29.81,11,2,16,0.04
2013-6-27,82.4,76.8,71.0,71.4,67.6,65.2,83,74,64,29.83,29.60,15,3,17,0.02
2013-6-28,89.2,77.6,71.0,70.8,65.7,62.3,79,68,47,29.62,29.48,10,3,20,0.07
2013-6-29,88.6,78.3,68.0,70.3,63.4,56.2,80,62,36,29.69,29.51,11,3,13,0.00
2013-6-30,85.3,78.2,75.0,71.9,69.4,65.6,82,74,62,29.85,29.69,9,2,12,0.08
2013-7-1,81.5,77.7,73.9,71.1,69.1,66.2,81,75,68,29.99,29.84,13,3,17,0.01
2013-7-2,82.9,76.8,72.9,71.8,68.9,66.9,83,77,65,30.18,29.99,11,4,17,0.11
2013-7-3,87.2,78.6,72.1,77.4,69.7,66.2,83,75,57,30.24,30.16,10,3,15,0.09
2013-7-4,89.4,80.9,74.4,72.4,70.4,68.7,84,71,53,30.26,30.17,12,4,16,0.00
2013-7-5,91.0,82.6,75.4,71.1,69.5,66.4,82,66,46,30.23,30.12,18,4,18,0.00
2013-7-6,94.6,84.6,76.4,72.0,69.2,66.6,79,61,41,30.18,30.06,10,3,16,0.00
2013-7-7,92.6,82.1,72.0,73.1,69.3,66.0,83,66,48,30.11,29.99,14,3,22,0.01
2013-7-8,89.1,79.6,72.6,68.7,66.7,62.4,83,66,47,30.10,30.03,9,2,14,0.13
2013-7-9,86.0,81.2,76.4,73.0,69.6,67.0,77,68,58,30.10,30.00,6,2,10,0.00
2013-7-10,91.0,82.6,74.8,74.1,71.5,67.3,81,70,52,30.01,29.85,18,3,28,0.01
2013-7-11,87.6,79.2,73.5,71.9,68.0,63.7,85,70,46,29.92,29.83,9,2,13,0.06
2013-7-12,80.5,72.0,67.8,69.6,62.8,59.3,79,73,65,30.00,29.88,10,2,13,0.68
2013-7-13,86.0,76.8,69.5,70.2,66.2,61.3,81,70,56,30.28,30.00,10,2,16,0.24
2013-7-14,89.6,81.9,75.0,72.8,70.1,67.1,83,68,52,30.35,30.27,9,2,12,0.00
2013-7-15,98.4,85.6,75.7,71.4,68.2,63.5,78,58,37,30.30,30.17,11,2,11,0.00
2013-7-16,96.0,88.1,80.7,68.4,64.8,60.5,62,47,35,30.23,30.15,11,2,14,0.00
2013-7-17,95.1,87.4,76.3,68.8,65.5,59.6,70,49,37,30.20,30.09,8,2,10,0.00
2013-7-18,97.9,88.6,79.9,71.0,68.2,65.9,69,52,40,30.11,30.00,7,2,12,0.00
2013-7-19,97.3,87.1,79.5,70.9,67.9,63.7,63,53,39,30.00,29.86,11,2,14,0.04
2013-7-20,95.5,85.9,78.6,70.3,67.0,64.0,65,54,40,29.89,29.78,12,3,17,0.12
2013-7-21,93.3,80.7,74.2,71.3,63.5,58.5,71,57,39,29.95,29.87,13,2,19,0.48
2013-7-22,87.2,81.3,74.8,68.8,63.8,59.8,66,56,46,29.94,29.75,9,2,12,0.00
2013-7-23,86.8,80.5,73.6,66.7,62.9,58.8,68,56,43,29.78,29.63,13,3,19,0.32
2013-7-24,86.4,78.9,73.1,62.4,56.6,49.1,61,47,40,29.91,29.67,10,3,14,0.00
2013-7-25,79.3,70.9,63.9,61.3,54.7,45.5,68,57,43,30.02,29.91,7,3,16,0.00
2013-7-26,85.9,74.5,65.4,63.0,58.6,53.4,80,60,36,30.09,30.01,10,2,12,0.00
2013-7-27,83.1,76.1,69.7,67.6,64.7,60.7,81,68,57,30.06,29.92,12,4,18,0.00
2013-7-28,88.6,78.4,71.4,68.8,65.4,62.5,76,65,44,29.98,29.88,9,2,10,0.00
2013-7-29,82.1,74.5,66.1,64.8,54.7,48.5,74,52,33,30.16,29.97,8,3,15,0.00
2013-7-30,83.6,74.3,62.3,61.8,55.2,48.3,74,53,37,30.23,30.14,9,2,14,0.00
2013-7-31,81.3,74.7,67.1,66.4,62.4,58.4,76,66,51,30.16,30.02,9,2,11,0.00
2013-8-1,85.6,75.2,68.0,71.2,67.6,63.3,87,78,58,30.02,29.80,7,2,13,0.38
2013-8-2,87.3,78.9,68.6,69.6,63.0,58.3,86,60,39,29.96,29.84,10,2,15,0.00
2013-8-3,79.0,73.2,67.8,65.9,62.5,59.1,79,69,59,29.97,29.91,7,1,11,0.02
2013-8-4,81.6,72.6,65.8,61.3,54.9,48.4,81,56,35,30.02,29.89,14,3,20,0.00
2013-8-5,78.2,70.3,58.7,60.7,54.5,50.6,77,58,43,30.10,30.01,8,2,11,0.00
2013-8-6,74.9,70.9,67.8,65.5,61.8,57.2,83,73,63,30.09,30.01,12,2,14,0.01
2013-8-7,81.1,75.0,70.3,67.6,65.5,63.2,84,73,59,30.08,30.00,12,3,15,0.00
2013-8-8,86.9,78.4,72.8,72.5,68.0,63.0,85,71,56,30.05,29.98,12,4,19,0.20
2013-8-9,90.7,81.8,76.1,76.3,71.1,68.1,84,71,52,29.98,29.84,12,3,17,0.12
2013-8-10,87.6,79.7,73.6,70.5,64.6,58.8,78,61,41,30.08,29.93,8,2,10,0.00
2013-8-11,84.4,77.3,71.7,67.7,65.5,63.6,79,67,54,30.12,30.02,8,2,11,0.00
2013-8-12,90.6,79.9,72.0,70.0,67.5,64.7,82,67,46,30.03,29.91,7,1,10,0.00
2013-8-13,88.3,78.5,71.5,73.0,68.5,64.4,88,72,48,29.91,29.73,9,3,15,0.42
2013-8-14,74.3,68.8,60.9,66.6,50.3,44.5,83,52,40,30.09,29.79,12,4,20,0.00
2013-8-15,77.7,67.4,55.5,53.5,49.4,43.4,79,55,32,30.18,30.09,10,2,13,0.00
2013-8-16,78.7,69.3,57.8,57.1,52.2,48.0,77,57,35,30.20,30.13,10,1,11,0.00
2013-8-17,80.1,69.9,57.5,61.3,55.0,50.8,81,61,41,30.27,30.19,10,2,13,0.00
2013-8-18,75.5,70.7,66.2,62.5,59.0,54.0,80,67,51,30.23,30.15,9,2,10,0.03
2013-8-19,77.8,70.7,63.9,61.7,59.6,57.6,82,69,55,30.18,30.06,7,2,12,0.00
2013-8-20,85.5,76.1,64.3,67.6,62.6,55.1,76,64,47,30.16,30.08,9,2,13,0.00
2013-8-21,89.8,79.7,72.5,71.8,68.2,64.3,84,69,48,30.20,30.06,8,2,14,0.00
2013-8-22,88.6,80.5,72.7,71.3,66.6,61.5,85,64,43,30.08,29.92,10,3,14,0.01
2013-8-23,80.0,73.9,63.9,65.3,60.2,51.6,74,63,47,30.11,29.92,10,2,13,0.00
2013-8-24,82.5,71.2,60.0,59.5,54.3,45.7,80,57,31,30.34,30.10,6,2,13,0.00
2013-8-25,79.5,70.3,58.5,60.5,52.1,45.6,80,55,34,30.42,30.27,11,2,14,0.00
2013-8-26,89.4,75.5,62.9,63.5,55.5,50.8,66,52,34,30.29,29.99,9,3,17,0.00
2013-8-27,91.1,81.4,72.9,69.6,64.2,60.1,69,57,42,29.99,29.86,14,2,14,0.00
2013-8-28,83.3,78.5,73.4,70.1,67.2,64.2,82,69,58,29.91,29.81,11,2,15,0.00
2013-8-29,87.7,77.5,72.0,68.9,66.7,63.7,84,70,50,30.03,29.83,9,2,14,0.02
2013-8-30,89.2,77.6,69.0,69.2,64.7,61.1,80,66,44,30.04,29.89,12,3,15,0.00
2013-8-31,91.1,79.8,71.5,70.8,67.8,64.8,83,68,47,29.90,29.78,10,4,16,0.00
2013-9-1,88.0,80.9,71.5,72.4,69.0,63.8,79,68,55,29.85,29.75,11,3,15,0.00
2013-9-2,92.9,82.3,72.9,72.7,67.2,64.4,77,62,42,29.80,29.70,11,3,16,0.02
2013-9-3,84.6,79.0,70.5,70.4,60.4,51.7,79,55,36,29.95,29.71,17,3,20,0.00
2013-9-4,86.1,72.3,60.2,55.2,50.5,45.3,74,49,27,30.07,29.94,8,2,13,0.00
2013-9-5,83.7,73.8,64.5,57.3,53.1,44.4,72,50,34,30.13,29.99,9,3,16,0.00
2013-9-6,77.2,66.8,58.6,50.1,44.1,38.4,61,45,32,30.26,30.12,11,3,14,0.00
2013-9-7,82.1,67.9,53.4,59.6,51.1,38.4,70,56,35,30.15,29.92,11,2,14,0.00
2013-9-8,88.8,76.4,67.4,61.7,59.4,50.2,79,57,40,30.06,29.86,12,2,14,0.00
2013-9-9,78.4,70.5,61.4,63.8,53.5,45.0,72,55,46,30.20,30.06,9,3,11,0.00
2013-9-10,91.6,79.5,71.2,71.8,66.9,63.4,79,66,47,30.18,30.07,10,3,14,0.00
2013-9-11,93.6,84.0,75.8,72.0,68.3,64.9,71,60,41,30.14,30.00,12,3,15,0.00
2013-9-12,90.3,76.8,70.8,70.7,66.8,61.2,84,72,48,30.00,29.73,17,2,27,27.12
2013-9-13,78.0,71.1,63.2,67.1,54.9,46.1,84,59,34,29.92,29.69,14,3,23,0.00
2013-9-14,71.4,61.7,53.0,48.2,43.9,41.2,71,53,38,30.17,29.92,10,3,18,0.00
2013-9-15,76.1,62.7,48.2,56.3,48.0,39.9,76,60,35,30.25,30.09,10,2,14,0.00
2013-9-16,73.9,66.7,60.1,58.2,53.9,49.8,79,65,45,30.24,30.04,11,3,14,0.00
2013-9-17,68.5,58.8,50.0,50.1,42.2,35.9,74,56,34,30.44,30.24,11,3,15,0.01
2013-9-18,68.7,57.7,45.0,49.3,43.0,-99.9,82,61,34,30.36,30.20,11,2,11,0.00
2013-9-19,75.3,64.0,49.0,56.6,51.5,42.7,81,65,47,30.21,30.09,10,2,14,0.00
2013-9-20,76.6,66.3,54.2,58.8,55.4,48.9,85,69,52,30.11,29.97,12,3,15,0.00
2013-9-21,77.5,67.4,60.2,65.4,59.6,54.3,90,77,56,30.00,29.67,12,3,21,0.70
2013-9-22,71.1,64.8,56.2,60.9,52.1,44.9,90,66,41,29.94,29.71,11,3,17,0.01
2013-9-23,67.5,58.7,50.4,46.9,42.6,37.4,80,56,40,30.09,29.94,10,2,17,0.00
2013-9-24,74.5,58.8,45.0,50.0,43.2,39.2,83,59,33,30.12,29.94,10,2,13,0.00
2013-9-25,78.4,61.3,47.5,53.7,46.2,40.3,83,61,27,29.99,29.88,7,1,8,0.00
2013-9-26,76.6,63.7,54.0,54.5,49.9,46.4,82,63,37,30.08,29.93,7,1,11,0.00
2013-9-27,74.2,63.9,55.9,55.8,51.3,-99.9,77,65,47,30.25,30.08,8,1,12,0.00
2013-9-28,72.8,64.1,56.6,53.8,51.7,49.2,82,65,45,30.32,30.22,6,1,11,0.00
2013-9-29,72.8,61.8,50.1,55.3,50.2,43.2,83,67,45,30.22,30.07,6,1,9,0.00
2013-9-30,76.5,62.3,50.8,54.3,48.2,40.8,80,61,38,30.10,29.99,6,1,10,0.00
2013-10-1,82.7,68.8,55.8,61.8,55.0,46.6,84,63,40,30.07,29.96,6,1,9,0.00
2013-10-2,84.8,73.8,62.9,60.9,57.0,53.1,75,57,39,30.09,29.99,12,2,14,0.00
2013-10-3,81.6,73.0,62.5,65.5,61.2,55.6,79,67,54,30.13,30.05,7,1,9,0.00
2013-10-4,87.3,74.7,63.1,68.2,62.1,56.6,84,67,43,30.09,30.00,7,1,9,0.00
2013-10-5,87.6,77.2,69.3,66.7,63.6,60.7,77,64,46,30.10,30.00,10,2,12,0.00
2013-10-6,84.3,75.4,67.0,67.6,64.0,58.7,80,68,53,30.04,29.94,15,4,19,0.00
2013-10-7,75.7,67.4,56.4,69.1,60.0,44.0,87,77,62,30.06,29.80,21,4,25,0.85
2013-10-8,66.4,57.9,49.0,49.0,44.6,40.2,82,62,45,30.29,30.05,7,1,17,0.00
2013-10-9,60.4,57.6,55.3,50.2,47.5,44.4,81,69,62,30.33,30.21,9,3,16,0.06
2013-10-10,58.8,56.0,53.5,55.3,52.3,49.2,90,88,79,30.21,29.97,13,5,18,2.18
2013-10-11,64.1,61.0,58.3,60.3,57.5,54.8,90,88,85,30.01,29.92,12,4,16,2.02
2013-10-12,68.0,63.1,60.4,59.5,56.9,53.6,91,81,63,30.18,29.98,10,3,14,1.57
2013-10-13,66.4,60.8,56.5,57.8,54.7,50.3,91,81,65,30.35,30.16,9,3,14,0.38
2013-10-14,69.9,60.7,55.9,53.1,51.3,48.6,80,72,53,30.35,30.24,8,2,9,0.00
2013-10-15,72.3,60.6,50.3,54.5,47.7,32.8,85,65,27,30.26,30.09,7,1,10,0.00
2013-10-16,68.5,64.0,60.6,59.5,56.4,52.3,84,76,70,30.10,29.92,6,2,8,0.00
2013-10-17,75.0,66.8,61.7,62.7,59.4,56.5,86,77,63,29.93,29.73,9,2,16,0.06
2013-10-18,66.5,58.9,50.0,56.2,42.9,38.7,81,57,38,30.03,29.81,13,3,19,0.00
2013-10-19,64.2,56.2,46.2,50.2,44.2,39.0,80,65,48,30.02,29.78,11,2,14,0.00
2013-10-20,63.3,54.3,45.8,41.3,34.7,30.4,75,49,32,30.11,29.85,15,3,17,0.00
2013-10-21,66.2,54.3,42.3,45.7,40.3,35.1,79,61,33,30.17,29.98,13,3,16,0.00
2013-10-22,63.6,56.3,49.0,48.5,45.0,40.8,83,67,50,29.99,29.82,9,2,12,0.00
2013-10-23,57.6,50.8,44.5,42.6,36.2,30.8,83,58,40,29.89,29.64,10,2,17,0.01
2013-10-24,51.4,44.9,38.8,34.4,27.8,21.0,74,53,32,30.14,29.89,16,4,23,0.00
2013-10-25,55.2,44.3,35.7,31.2,27.9,22.5,71,54,33,30.33,30.13,13,3,17,0.00
2013-10-26,57.4,45.7,32.1,29.3,27.1,24.4,77,51,30,30.31,29.94,14,3,21,0.00
2013-10-27,59.6,50.5,40.0,37.0,32.0,29.1,74,50,34,30.17,29.95,13,2,16,0.00
2013-10-28,66.3,48.8,35.5,44.7,36.7,28.8,79,65,37,30.30,30.15,6,1,9,0.00
2013-10-29,64.5,50.4,38.5,44.2,39.4,33.5,84,68,42,30.40,30.28,4,1,7,0.00
2013-10-30,65.0,54.3,45.7,54.3,48.4,39.9,92,81,66,30.34,30.16,8,1,11,0.10
2013-10-31,69.4,61.4,52.6,59.0,55.3,48.2,90,81,65,30.21,29.78,11,2,15,0.01
2013-11-1,74.3,67.5,60.0,63.0,58.6,54.0,88,74,54,29.79,29.60,19,5,30,0.20
2013-11-2,68.0,58.9,49.2,54.7,44.9,34.8,89,62,40,29.88,29.64,13,2,18,0.00
2013-11-3,55.9,48.0,38.1,39.2,30.7,17.9,74,53,24,30.49,29.88,14,3,19,0.00
2013-11-4,47.0,38.1,33.8,26.9,20.1,13.1,68,49,27,30.65,30.47,7,2,13,0.00
2013-11-5,58.0,48.8,35.2,45.5,37.7,26.0,73,66,56,30.63,30.47,7,1,10,0.00
2013-11-6,65.2,57.4,48.1,49.9,47.3,42.2,84,70,54,30.49,30.08,12,4,16,0.00
2013-11-7,61.7,55.0,44.7,55.0,45.0,20.0,87,70,37,30.09,29.87,17,4,28,0.05
2013-11-8,50.1,42.5,34.6,27.7,22.9,19.3,67,47,31,30.33,30.08,20,3,28,0.00
2013-11-9,53.9,44.4,31.8,27.2,24.6,22.0,70,48,32,30.37,30.03,14,3,17,0.00
2013-11-10,61.7,50.6,43.0,32.3,27.2,24.0,58,41,26,30.23,29.95,17,5,29,0.00
2013-11-11,57.0,47.6,35.4,29.0,26.5,24.0,68,45,28,30.33,30.01,12,3,16,0.00
2013-11-12,52.8,42.0,30.5,35.0,20.0,8.2,65,42,29,30.41,29.98,23,5,29,0.00
2013-11-13,42.7,34.6,27.6,17.8,14.7,10.5,59,45,32,30.48,30.39,17,3,25,0.00
2013-11-14,58.2,40.8,27.1,25.3,17.2,9.2,66,42,15,30.40,30.22,9,1,13,0.00
2013-11-15,59.3,44.0,29.4,39.0,26.7,19.2,79,52,27,30.29,30.19,8,1,10,0.00
2013-11-16,53.1,49.5,45.9,48.3,44.5,38.3,88,83,74,30.33,30.24,6,1,7,0.11
2013-11-17,63.6,56.1,50.3,56.4,51.7,47.1,91,85,74,30.25,29.75,11,4,13,0.00
2013-11-18,68.3,60.3,50.8,61.1,36.5,21.8,90,47,19,29.93,29.67,33,6,41,0.14
2013-11-19,50.8,44.4,34.9,25.5,23.2,20.6,63,43,33,30.37,29.92,16,5,22,0.00
2013-11-20,43.3,37.3,29.0,24.3,21.8,19.7,73,54,42,30.58,30.36,8,2,11,0.00
2013-11-21,51.7,40.9,27.4,38.0,30.1,20.3,81,66,53,30.58,30.39,6,1,6,0.00
2013-11-22,61.4,53.6,46.2,52.1,44.8,37.0,84,72,63,30.39,29.99,11,2,18,0.00
2013-11-23,57.9,44.9,32.2,48.2,24.4,6.1,70,46,28,30.20,30.01,18,7,27,0.00
2013-11-24,32.5,27.3,23.7,6.7,3.2,-0.7,47,35,27,30.51,30.19,21,8,33,0.00
2013-11-25,36.7,28.3,21.2,8.6,5.5,3.5,49,38,26,30.58,30.36,8,3,14,0.00
2013-11-26,57.0,37.2,32.5,54.8,25.6,8.5,93,66,34,30.35,29.53,13,2,16,1.32
2013-11-27,57.3,38.6,29.9,55.3,31.9,12.1,93,78,45,30.02,29.48,20,6,33,1.02
2013-11-28,37.1,31.4,26.6,21.4,12.3,7.5,63,46,29,30.49,30.02,17,4,26,0.00
2013-11-29,41.3,33.2,23.0,21.3,17.5,15.3,80,54,36,30.73,30.47,11,3,18,0.00
2013-11-30,39.5,31.8,24.2,22.8,18.2,14.6,68,57,41,30.73,30.38,6,2,8,0.00
2013-12-1,49.3,37.0,25.0,32.6,25.5,18.2,79,64,42,30.38,30.02,5,1,7,0.00
2013-12-2,50.3,43.5,39.5,36.9,33.5,30.4,84,68,50,30.02,29.88,6,1,8,0.00
2013-12-3,58.2,46.3,38.2,35.9,33.4,30.6,76,62,42,30.00,29.87,7,1,11,0.00
2013-12-4,53.3,46.7,36.7,48.6,39.7,29.9,88,77,68,30.09,29.99,6,1,9,0.00
2013-12-5,65.8,57.7,51.2,60.1,52.9,47.1,93,84,73,30.09,29.92,11,3,20,0.00
2013-12-6,66.1,51.6,37.4,61.6,48.2,34.7,92,88,82,30.18,29.88,14,5,23,0.53
2013-12-7,41.8,37.4,31.1,34.9,28.0,19.1,91,70,51,30.54,30.12,13,5,18,0.42
2013-12-8,32.2,29.4,27.1,29.2,21.7,15.7,89,74,56,30.59,30.29,11,4,15,0.01
2013-12-9,36.1,33.5,31.2,33.2,30.6,28.1,91,89,87,30.29,30.03,8,1,8,0.01
2013-12-10,36.1,32.9,31.3,32.7,27.4,15.4,92,81,51,30.22,29.98,11,2,13,0.11
2013-12-11,40.7,31.9,25.2,21.6,15.3,12.3,76,51,33,30.41,30.22,11,3,13,0.00
2013-12-12,30.3,27.3,24.0,18.7,8.4,1.1,77,46,31,30.43,30.24,11,4,20,0.00
2013-12-13,42.1,32.6,23.4,19.9,12.2,7.4,60,44,27,30.33,30.21,12,3,20,0.00
2013-12-14,38.1,35.3,31.2,34.9,27.6,17.7,90,74,54,30.33,29.68,8,3,13,0.00
2013-12-15,45.2,37.4,33.2,34.7,27.1,18.7,90,68,48,29.94,29.61,21,5,26,0.00
2013-12-16,36.7,33.6,30.8,22.7,19.1,13.4,65,55,47,30.20,29.93,12,3,17,0.00
2013-12-17,38.3,34.0,31.1,27.2,23.9,20.5,76,66,61,30.18,29.94,9,2,13,0.00
2013-12-18,39.3,33.1,26.4,25.9,19.7,13.3,82,59,38,30.23,29.97,14,3,22,0.00
2013-12-19,59.5,41.7,24.0,27.5,22.9,17.4,79,51,27,30.21,30.07,9,3,18,0.08
2013-12-20,59.3,53.7,46.9,47.3,31.3,24.3,66,43,32,30.11,30.00,11,4,16,0.00
2013-12-21,71.6,63.1,55.4,58.5,49.6,41.9,74,62,50,30.01,29.89,16,6,25,0.00
2013-12-22,71.2,65.3,61.6,63.3,59.1,56.4,91,81,72,30.01,29.82,19,7,34,0.39
2013-12-23,63.7,55.3,39.0,61.1,49.6,25.0,94,82,56,30.23,29.91,16,5,21,0.64
2013-12-24,39.5,33.7,23.7,26.7,17.1,2.2,69,51,30,30.47,30.19,17,6,26,0.00
2013-12-25,32.4,25.0,18.8,15.1,8.7,5.0,65,50,33,30.57,30.39,10,2,15,0.00
2013-12-26,43.9,32.1,23.9,21.9,19.1,15.0,75,60,37,30.40,30.21,12,2,14,0.00
2013-12-27,49.0,37.1,25.6,21.4,17.2,13.6,67,46,24,30.43,30.31,13,2,16,0.00
2013-12-28,58.1,44.5,32.6,24.0,21.5,18.8,57,42,24,30.33,30.11,11,2,16,0.00
2013-12-29,48.3,45.2,41.1,44.9,36.8,23.2,93,76,38,30.10,29.51,11,3,19,0.83
2013-12-30,46.2,39.4,32.5,38.6,28.2,15.6,87,65,47,30.19,29.80,12,4,21,0.07
2013-12-31,43.1,34.0,27.0,25.2,17.1,12.4,62,50,33,30.34,30.09,15,4,27,0.00
2014-1-1,43.0,34.2,24.5,31.4,22.7,15.3,82,63,44,30.42,30.14,12,3,14,0.00
2014-1-2,35.5,32.6,27.2,31.2,28.9,24.7,91,86,77,30.13,29.60,11,3,14,0.27